• In Czech Republic
  • List of Countries
  • For 7 days
  • Water Temperature
  • Satellite Maps
  • Weather Map
  • Weather Widgets
  • user-avatar
    Login

    Hourly Weather Mazatenango

    Today, 17 October, Wednesday

    Time Temperature Precipitation Wind Pressure Humidity
    00:00 +25°C° 1.5 mm 1 mps 725 mmHg 95%
    01:00 +25°C° 0.4 mm 1 mps 724 mmHg 95%
    02:00 +25°C° 0.4 mm 1 mps 724 mmHg 94%
    03:00 +25°C° 0.4 mm 1 mps 724 mmHg 94%
    04:00 +25°C° 0.3 mm 1 mps 724 mmHg 93%
    05:00 +25°C° 0.3 mm 1 mps 724 mmHg 93%
    06:00 +24°C° 0.3 mm 1 mps 724 mmHg 92%
    07:00 +26°C° 0.4 mm 1 mps 724 mmHg 88%
    08:00 +27°C° 0.4 mm 1 mps 725 mmHg 84%
    09:00 +28°C° 0.4 mm 2 mps 725 mmHg 80%
    10:00 +29°C° 0.5 mm 2 mps 725 mmHg 79%
    11:00 +29°C° 0.5 mm 2 mps 725 mmHg 77%
    12:00 +30°C° 0.5 mm 3 mps 725 mmHg 76%
    13:00 +30°C° 1.6 mm 3 mps 724 mmHg 80%
    14:00 +29°C° 1.6 mm 3 mps 724 mmHg 84%
    15:00 +28°C° 1.6 mm 3 mps 723 mmHg 88%
    16:00 +28°C° 3 mm 3 mps 723 mmHg 90%
    17:00 +27°C° 3 mm 2 mps 723 mmHg 93%
    18:00 +26°C° 3 mm 2 mps 724 mmHg 95%
    19:00 +26°C° 2.4 mm 2 mps 724 mmHg 95%
    20:00 +26°C° 2.4 mm 2 mps 724 mmHg 95%
    21:00 +25°C° 2.4 mm 2 mps 725 mmHg 95%
    22:00 +25°C° 1.4 mm 2 mps 725 mmHg 94%
    23:00 +25°C° 1.4 mm 2 mps 725 mmHg 94%

    Tomorrow, 18 October, Thursday

    Time Temperature Precipitation Wind Pressure Humidity
    00:00 +25°C° 1.4 mm 2 mps 725 mmHg 93%
    01:00 +25°C° 1.4 mm 2 mps 724 mmHg 93%
    02:00 +25°C° 1.4 mm 2 mps 724 mmHg 93%
    03:00 +25°C° 1.4 mm 2 mps 724 mmHg 93%
    04:00 +25°C° 0.2 mm 2 mps 724 mmHg 92%
    05:00 +24°C° 0.2 mm 2 mps 724 mmHg 92%
    06:00 +24°C° 0.2 mm 2 mps 724 mmHg 91%
    07:00 +26°C° 0 mm 2 mps 725 mmHg 85%
    08:00 +28°C° 0 mm 3 mps 725 mmHg 80%
    09:00 +30°C° 0 mm 3 mps 726 mmHg 74%
    10:00 +30°C° 0.4 mm 4 mps 726 mmHg 73%
    11:00 +30°C° 0.4 mm 5 mps 726 mmHg 73%
    12:00 +30°C° 0.4 mm 6 mps 725 mmHg 73%
    13:00 +30°C° 0.4 mm 5 mps 725 mmHg 76%
    14:00 +29°C° 0.4 mm 5 mps 724 mmHg 80%
    15:00 +28°C° 0.4 mm 4 mps 724 mmHg 84%
    16:00 +27°C° 0.8 mm 4 mps 724 mmHg 88%
    17:00 +26°C° 0.8 mm 3 mps 725 mmHg 91%
    18:00 +25°C° 0.8 mm 3 mps 725 mmHg 95%
    19:00 +25°C° 1 mm 3 mps 726 mmHg 94%
    20:00 +25°C° 1 mm 2 mps 726 mmHg 93%
    21:00 +25°C° 1 mm 2 mps 727 mmHg 92%
    22:00 +25°C° 0.8 mm 2 mps 727 mmHg 92%
    23:00 +25°C° 0.8 mm 2 mps 727 mmHg 91%

    Day after tomorrow, 19 October, Friday

    Time Temperature Precipitation Wind Pressure Humidity
    00:00 +25°C° 0.8 mm 2 mps 727 mmHg 91%
    01:00 +25°C° 0.6 mm 2 mps 726 mmHg 90%
    02:00 +25°C° 0.6 mm 2 mps 726 mmHg 89%
    03:00 +25°C° 0.6 mm 1 mps 725 mmHg 89%
    04:00 +25°C° 0.4 mm 1 mps 726 mmHg 88%
    05:00 +24°C° 0.4 mm 1 mps 726 mmHg 88%
    06:00 +24°C° 0.4 mm 1 mps 726 mmHg 88%
    07:00 +26°C° 0.3 mm 1 mps 726 mmHg 84%
    08:00 +27°C° 0.3 mm 2 mps 727 mmHg 81%
    09:00 +28°C° 0.3 mm 2 mps 728 mmHg 78%
    10:00 +28°C° 0.5 mm 2 mps 727 mmHg 78%
    11:00 +29°C° 0.5 mm 2 mps 727 mmHg 77%
    12:00 +29°C° 0.5 mm 2 mps 727 mmHg 77%
    13:00 +29°C° 1.5 mm 2 mps 726 mmHg 80%
    14:00 +28°C° 1.5 mm 2 mps 725 mmHg 82%
    15:00 +28°C° 1.5 mm 2 mps 725 mmHg 85%
    16:00 +27°C° 2 mm 1 mps 725 mmHg 88%
    17:00 +26°C° 2 mm 1 mps 725 mmHg 90%
    18:00 +25°C° 2 mm 1 mps 725 mmHg 93%
    19:00 +25°C° 0.5 mm 1 mps 726 mmHg 92%
    20:00 +25°C° 0.5 mm 1 mps 727 mmHg 92%
    21:00 +25°C° 0.5 mm 1 mps 727 mmHg 92%
    22:00 +24°C° 0.3 mm 1 mps 727 mmHg 92%
    23:00 +24°C° 0.3 mm 1 mps 727 mmHg 91%

    20 October, Saturday

    Time Temperature Precipitation Wind Pressure Humidity
    00:00 +24°C° 0.3 mm 1 mps 727 mmHg 91%
    01:00 +24°C° 0.1 mm 1 mps 726 mmHg 89%
    02:00 +24°C° 0.1 mm 1 mps 725 mmHg 88%
    03:00 +24°C° 0.1 mm 1 mps 725 mmHg 87%
    04:00 +24°C° 0.1 mm 1 mps 725 mmHg 86%
    05:00 +24°C° 0.1 mm 1 mps 726 mmHg 85%
    06:00 +24°C° 0.1 mm 1 mps 726 mmHg 83%
    07:00 +26°C° 0 mm 1 mps 726 mmHg 78%
    08:00 +28°C° 0 mm 1 mps 727 mmHg 73%
    09:00 +30°C° 0 mm 2 mps 727 mmHg 68%
    10:00 +30°C° 0.1 mm 2 mps 727 mmHg 68%
    11:00 +31°C° 0.1 mm 2 mps 726 mmHg 68%
    12:00 +33°C° 0.1 mm 3 mps 726 mmHg 68%
    13:00 +31°C° 0.9 mm 3 mps 725 mmHg 72%
    14:00 +30°C° 0.9 mm 3 mps 724 mmHg 76%
    15:00 +30°C° 0.9 mm 3 mps 723 mmHg 80%
    16:00 +29°C° 1.1 mm 2 mps 724 mmHg 84%
    17:00 +27°C° 1.1 mm 2 mps 724 mmHg 88%
    18:00 +26°C° 1.1 mm 2 mps 725 mmHg 91%
    19:00 +26°C° 0.9 mm 2 mps 725 mmHg 91%
    20:00 +26°C° 0.9 mm 2 mps 726 mmHg 91%
    21:00 +25°C° 0.9 mm 2 mps 726 mmHg 91%
    22:00 +25°C° 0.1 mm 2 mps 726 mmHg 90%
    23:00 +25°C° 0.1 mm 2 mps 726 mmHg 89%

    21 October, Sunday

    Time Temperature Precipitation Wind Pressure Humidity
    00:00 +25°C° 0.1 mm 2 mps 726 mmHg 88%
    01:00 +25°C° 0.2 mm 2 mps 725 mmHg 86%
    02:00 +25°C° 0.2 mm 1 mps 725 mmHg 84%
    03:00 +25°C° 0.2 mm 1 mps 725 mmHg 83%
    04:00 +25°C° 0.3 mm 1 mps 725 mmHg 82%
    05:00 +25°C° 0.3 mm 1 mps 725 mmHg 82%
    06:00 +25°C° 0.3 mm 1 mps 726 mmHg 82%
    07:00 +26°C° 0.1 mm 1 mps 726 mmHg 78%
    08:00 +28°C° 0.1 mm 1 mps 727 mmHg 74%
    09:00 +29°C° 0.1 mm 2 mps 727 mmHg 71%
    10:00 +30°C° 0.1 mm 2 mps 727 mmHg 71%
    11:00 +30°C° 0.1 mm 2 mps 726 mmHg 71%
    12:00 +31°C° 0.1 mm 2 mps 726 mmHg 71%
    13:00 +31°C° 0.5 mm 2 mps 725 mmHg 73%
    14:00 +30°C° 0.5 mm 2 mps 725 mmHg 75%
    15:00 +30°C° 0.5 mm 2 mps 724 mmHg 77%
    16:00 +29°C° 0.4 mm 2 mps 724 mmHg 82%
    17:00 +27°C° 0.4 mm 1 mps 725 mmHg 87%
    18:00 +26°C° 0.4 mm 1 mps 725 mmHg 91%
    19:00 +25°C° 0.1 mm 1 mps 726 mmHg 91%
    20:00 +25°C° 0.1 mm 1 mps 726 mmHg 91%
    21:00 +24°C° 0.1 mm 1 mps 727 mmHg 91%
    22:00 +24°C° 0.2 mm 1 mps 727 mmHg 89%
    23:00 +24°C° 0.2 mm 1 mps 726 mmHg 88%

    22 October, Monday

    Time Temperature Precipitation Wind Pressure Humidity
    00:00 +23°C° 0.2 mm 1 mps 726 mmHg 86%
    01:00 +23°C° 0 mm 1 mps 726 mmHg 83%
    02:00 +23°C° 0 mm 1 mps 725 mmHg 81%
    03:00 +23°C° 0 mm 1 mps 725 mmHg 78%
    04:00 +23°C° 0 mm 1 mps 725 mmHg 77%
    05:00 +23°C° 0 mm 1 mps 726 mmHg 76%
    06:00 +23°C° 0 mm 1 mps 726 mmHg 75%
    07:00 +26°C° 0 mm 1 mps 726 mmHg 68%
    08:00 +28°C° 0 mm 1 mps 727 mmHg 62%
    09:00 +30°C° 0 mm 1 mps 727 mmHg 55%
    10:00 +31°C° 0 mm 1 mps 727 mmHg 55%
    11:00 +32°C° 0 mm 2 mps 726 mmHg 55%
    12:00 +34°C° 0 mm 2 mps 726 mmHg 55%
    13:00 +32°C° 0.3 mm 2 mps 725 mmHg 62%
    14:00 +31°C° 0.3 mm 2 mps 725 mmHg 69%
    15:00 +30°C° 0.3 mm 2 mps 724 mmHg 76%
    16:00 +29°C° 1 mm 2 mps 724 mmHg 81%
    17:00 +27°C° 1 mm 1 mps 725 mmHg 86%
    18:00 +26°C° 1 mm 1 mps 725 mmHg 91%
    19:00 +25°C° 0.2 mm 1 mps 726 mmHg 91%
    20:00 +25°C° 0.2 mm 1 mps 726 mmHg 91%
    21:00 +24°C° 0.2 mm 1 mps 727 mmHg 91%
    22:00 +24°C° 0.2 mm 1 mps 727 mmHg 90%
    23:00 +24°C° 0.2 mm 1 mps 727 mmHg 89%
    Show more